This demonstration page uses our WeatherBlox Daily Observations layout. Learn more.

Left ArrowRight Arrow

39.12711, -84.51439

Hourly Observations for June 5, 2021

Temp ( °F °C ) Dew Point ( °F °C ) Humidity (%) Winds ( mph kmh ) Pressure ( in mb ) Visibility ( mi km ) Precip ( " mm )
12:53 am 00:53 Clear 63 17.2 60 15.6 90 90 N N/A 30.03 1017 10 16 N/A
1:53 am 01:53 Clear with Mist and Fog 62 16.7 60 15.6 93 93 N N/A 30.03 1017 5 8 N/A
2:53 am 02:53 Clear with Mist and Fog 60 15.6 59 15 96 96 N N/A 30.04 1017 3 5 N/A
3:00 am 03:00 Clear with Mist and Fog 60 15.6 59 15 96 96 N N/A 30.05 1017 1 1 N/A
3:11 am 03:11 Mostly Cloudy with Fog 60 15.6 59 15 96 96 N N/A 30.05 1017 0 0 N/A
3:20 am 03:20 Mostly Cloudy with Mist and Fog 60 15.6 59 15 96 96 N N/A 30.05 1017 1 2 N/A
3:35 am 03:35 Mostly Cloudy with Mist and Fog 59 15 58 14.4 96 96 N N/A 30.05 1018 1 2 N/A
3:41 am 03:41 Clear with Mist and Fog 59 15 58 14.4 96 96 N N/A 30.05 1018 3 4 N/A
3:48 am 03:48 Clear with Mist and Fog 61 16 57 14 88 88 N N/A 30.05 1017 6 10 N/A
3:53 am 03:53 Clear with Mist and Fog 59 15 58 14.4 96 96 N N/A 30.04 1017 4 6 N/A
4:01 am 04:01 Clear with Mist and Fog 59 15 58 14.4 96 96 N N/A 30.05 1018 3 4 N/A
4:08 am 04:08 Clear with Mist and Fog 59 15 58 14.4 96 96 N N/A 30.05 1018 1 1 N/A
4:30 am 04:30 Mostly Clear with Mist and Fog 59 15 58 14.4 96 96 N N/A 30.05 1018 1 2 N/A
4:38 am 04:38 Mostly Cloudy with Mist and Fog 59 15 58 14.4 96 96 N N/A 30.05 1018 1 1 N/A
4:53 am 04:53 Mostly Cloudy with Mist and Fog 59 15 57 13.9 93 93 N N/A 30.04 1017 1 1 N/A
5:12 am 05:12 Mostly Cloudy with Mist and Fog 58 14.4 57 13.9 97 97 N N/A 30.05 1018 2 2 N/A
5:17 am 05:17 Partly Cloudy with Mist and Fog 58 14.4 57 13.9 97 97 N N/A 30.06 1018 2 3 N/A
5:30 am 05:30 Mostly Cloudy with Mist and Fog 57 13.9 56 13.3 96 96 N N/A 30.06 1018 1 1 N/A
5:40 am 05:40 Mostly Cloudy with Fog 56 13.3 55 12.8 97 97 N N/A 30.06 1018 0 0 N/A
5:53 am 05:53 Mostly Cloudy with Fog 57 13.9 56 13.3 96 96 N N/A 30.05 1018 0 0 N/A
6:20 am 06:20 Mostly Cloudy with Fog 57 13.9 56 13.3 96 96 N N/A 30.07 1018 N/A N/A
6:46 am 06:46 Mostly Cloudy with Fog 57 13.9 56 13.3 96 96 N N/A 30.07 1018 0 0 N/A
6:53 am 06:53 Mostly Cloudy with Fog 57 13.9 57 13.9 100 100 N N/A 30.06 1018 0 0 N/A
7:18 am 07:18 Mostly Cloudy with Mist and Fog 59 15 58 14.4 96 96 N N/A 30.08 1019 2 3 N/A
7:24 am 07:24 Partly Cloudy with Mist and Fog 59 15 59 15 100 100 N N/A 30.08 1019 3 5 N/A
7:53 am 07:53 Sunny with Mist and Fog 62 16.7 61 16.1 96 96 N N/A 30.07 1018 5 8 N/A
8:53 am 08:53 Sunny 68 20 63 17.2 84 84 N N/A 30.06 1018 10 16 N/A
9:53 am 09:53 Sunny 74 23.3 63 17.2 69 69 SSW 3 6 30.06 1018 10 16 N/A
10:53 am 10:53 Sunny 79 26.1 62 16.7 56 56 N N/A 30.05 1018 10 16 N/A
11:53 am 11:53 Mostly Sunny 82 27.8 61 16.1 49 49 SSE 7 11 30.04 1017 10 16 N/A
12:53 pm 12:53 Partly Cloudy 83 28.3 60 15.6 46 46 VRB 6 9 30.03 1017 10 16 N/A
1:53 pm 13:53 Mostly Sunny 84 28.9 62 16.7 48 48 SW 10 17 30.02 1017 10 16 N/A
2:53 pm 14:53 Partly Cloudy 85 29.4 60 15.6 43 43 SSW 12 19 30.00 1016 10 16 N/A
3:53 pm 15:53 Sunny 84 28.9 59 15 43 43 S 12 19 29.99 1016 10 16 N/A
4:53 pm 16:53 Mostly Sunny 85 29.4 60 15.6 43 43 S 10 17 29.98 1015 10 16 N/A
5:53 pm 17:53 Sunny 85 29.4 57 13.9 39 39 WSW 8 13 29.97 1015 10 16 N/A
6:53 pm 18:53 Sunny 83 28.3 58 14.4 43 43 SW 7 11 29.97 1015 10 16 N/A
7:53 pm 19:53 Sunny 79 26.1 62 16.7 56 56 S 8 13 29.97 1015 10 16 N/A
8:53 pm 20:53 Sunny 73 22.8 64 17.8 74 74 N N/A 29.99 1016 10 16 N/A
9:53 pm 21:53 Clear 70 21.1 62 16.7 76 76 N N/A 30.00 1016 10 16 N/A
10:53 pm 22:53 Clear 67 19.4 62 16.7 84 84 N N/A 30.02 1017 10 16 N/A
11:53 pm 23:53 Clear 64 17.8 61 16.1 90 90 N N/A 30.02 1017 10 16 N/A

Powered by AerisWeather